Regional Weather Roundup
Issued by NWS San Diego, CA

Home | Current Version | Previous Version | Text Only | Print | Product List | Glossary On
Versions: 1 2 3 4 5 6 7 8 9 10 11 12 13 14 15 16 17 18 19 20 21 22 23 24 25 26 27 28
000
ASUS46 KSGX 300511
RWRSGX

SAN DIEGO HOURLY WEATHER ROUNDUP
NATIONAL WEATHER SERVICE SAN DIEGO CA
1000 PM PDT FRI APR 29 2016

NOTE: "FAIR" INDICATES FEW OR NO CLOUDS BELOW 12,000 FEET WITH NO
SIGNIFICANT WEATHER AND/OR OBSTRUCTIONS TO VISIBILITY.

CAZ042-043-060-061-PZZ750-775-300600-

GREATER SAN DIEGO AREA

CITY           SKY/WX    TMP DP  RH WIND       PRES   REMARKS
LINDBERGH FLD  CLOUDY    61  51  70 NW3       29.97S
POINT LOMA       N/A     58  57  96 W8          N/A
NATIONAL CITY    N/A     60  53  76 W1        29.96S
CHULA VISTA      N/A     60  54  80 W3        29.88S
IMPERIAL BEACH CLOUDY    62  51  67 W6        29.96S
BROWN FIELD    CLOUDY    57  51  80 W7        29.95S
MIRAMAR MCAS   CLOUDY    61  50  67 VRB3      29.95
MONTGOMERY FLD CLOUDY    60  50  69 W5        29.95S

$$

NORTH SAN DIEGO COUNTY

CITY           SKY/WX    TMP DP  RH WIND       PRES   REMARKS
CAMP PENDLETON CLOUDY    57  51  80 CALM      29.93S
OCEANSIDE AP   CLOUDY    61  51  70 CALM      29.93S
OCEANSIDE HBR    N/A     61  56  83 W3        29.95F
VISTA            N/A     57  51  80 CALM      29.92S
CARLSBAD       CLOUDY    60  53  77 S5        29.93S
DEL MAR          N/A     59  54  84 W3        29.98S
LA JOLLA SCRIP   N/A     58  53  83 S5        29.95S
FALLBROOK        N/A     56  55  94 CALM      29.93S
SAN MARCOS       N/A     57  48  71 CALM      29.93S
POWAY            N/A     58  52  79 CALM      29.96S

$$

EAST SAN DIEGO COUNTY

CITY           SKY/WX    TMP DP  RH WIND       PRES   REMARKS
RAMONA         CLOUDY    53  50  89 W5        29.94S
SANTEE LAKES     N/A     59  53  81 CALM      29.94S
LA MESA          N/A     58  51  79 CALM      29.89R
JAMUL            N/A     56  51  83 CALM      29.95S
DESCANSO N       N/A     48  46  91 CALM      29.83S
MT. LAGUNA OBS   N/A     40  35  80 W13       29.57  WCI  33
CAMPO            N/A     49  46  90 SW6       29.91S

$$

ORANGE COUNTY AND THE LOS ANGELES BASIN

CITY           SKY/WX    TMP DP  RH WIND       PRES   REMARKS
JOHN WAYNE AP  PTCLDY    58  51  78 SW5       29.92F
LAKE FOREST FR   N/A     55  49  78 CALM      29.82F
HUNTINGTON BCH   N/A     58  54  85 SW3       29.94F
LOS ALAMITOS   FAIR      57  51  79 W3        29.92S
FULLERTON      CLOUDY    60  52  74 SE6       29.91F
LONG BEACH     PTCLDY    58  50  75 W5        29.92S
L.A. AP        PTCLDY    57  51  80 SW8       29.92S
L.A. DOWNTOWN  CLEAR     58  50  75 S3        29.91S

$$

THE INLAND EMPIRE

CITY           SKY/WX    TMP DP  RH WIND       PRES   REMARKS
CORONA         CLEAR     57  51  80 NW5       29.91F
CHINO          CLOUDY    57  50  77 W9        29.92F
ONTARIO        PTCLDY    57  50  77 W6        29.91F
RIVERSIDE AP   CLEAR     58  49  72 W5        29.91S
MORENO VALLEY    N/A     56  54  91 SW2       28.04S
MARCH ARB      CLEAR     55  52  88 NW5       29.91S
HORSETHIEF CYN   N/A     56  44  66 W2        29.95R
PERRIS           N/A     56  51  82 S2          N/A
HEMET EAST       N/A     55  46  70 CALM      29.82S
FRENCH VALLEY  FAIR      55  48  76 S7        29.93F
TEMECULA         N/A     56  52  89 SW5       29.90S

$$

SAN BERNARDINO AND RIVERSIDE COUNTY MOUNTAINS

CITY           SKY/WX    TMP DP  RH WIND       PRES   REMARKS
BIG BEAR AP    CLEAR     43  28  56 SW8       29.98S
PINE COVE        N/A     44  34  68 NW6       29.92F

$$

SOUTHERN DESERT INCLUDING THE COACHELLA VALLEY

CITY           SKY/WX    TMP DP  RH WIND       PRES   REMARKS
PALM SPRINGS   CLEAR     73  44  35 W6        29.76R
THOUSAND PALMS   N/A     69  48  47 W18       29.74R
PALM DESERT      N/A     72  49  44 N2          N/A
THERMAL        CLEAR     74  44  34 NW21      29.72S
BLYTHE         CLEAR     76  44  32 SW18      29.72S
IMPERIAL AP    CLEAR     71  44  37 W16       29.75R
EL CENTRO NAS  CLEAR    N/A N/A N/A W23       29.78S
YUMA AZ        CLEAR     70  48  45 S9        29.78
MEXICALI       CLEAR     70  39  32 S6        29.78S

$$

UPPER DESERT

CITY           SKY/WX    TMP DP  RH WIND       PRES   REMARKS
VICTORVILLE AP CLEAR     61  34  36 W12       29.88R
HESPERIA         N/A     54  46  73 W12       29.97S
PALMDALE       CLEAR     57  44  62 SW13      29.88S
LANCASTER      CLEAR     59  43  55 SW13      29.86F
EDWARDS AFB    PTCLDY    62  39  43 W14       29.83S
DAGGETT        CLEAR     68  31  25 SW28G40   29.76F
29 PALMS N     PTCLDY    68  28  22 NW14      29.85S
NEEDLES        PTCLDY    75  36  24 W10       29.69F

$$

REGIONAL REPORTS

CITY           SKY/WX    TMP DP  RH WIND       PRES   REMARKS
SANTA BARBARA  CLEAR     54  44  69 CALM      29.89S
SANDBERG       CLEAR     53  39  59 W6        29.94F
LAS VEGAS NV   PTCLDY    70  31  23 SW3       29.66F
PHOENIX AZ     PTCLDY    74  35  24 SW9       29.77R
TIJUANA        CLOUDY    59  48  67 SW6       29.97S
ENSENADA NW      N/A     59  32  35 N3        29.93F

$$

OFFSHORE ISLANDS

CITY           SKY/WX    TMP DP  RH WIND       PRES   REMARKS
CATALINA ARPT  CLOUDY    49  47  93 W16       29.92F FOG
SAN NICOLAS IS PTCLDY   N/A N/A N/A NW37G47   29.93R

$$

MARINE AND OFFSHORE BUOY REPORTS

STATION/POSITION SKY/WX   TEMP    WIND        PRES    SWELL
                          AIR SEA DIR/SP/G            HT/PER/DIR
                          (F)     (DEG/KT/KT) (MB)    (FT/S/D)
TANNER BANKS               56 60  310/ 21/ 27 1014.6F  10/320/12
S CLEMENTE BASIN           56 62  280/ 17/ 21 1014.1S   5/290/13
SAN NICOLAS IS.               58                N/A     5/300/12
SO. S. ROSA ISLA           54 56  310/ 27/ 33 1013.7F   7/310/13
W. S. BARBARA CH           53 52  320/ 19/ 23 1014.0S   7/310/10
M. S. BARBARA CH           55 55  290/ 23/ 29 1012.9S
S. MONICA BASIN            57 59   70/  8/ 10 1013.0S   5/270/ 7
S PEDRO CHANNEL               61                N/A     2/270/13
OCEANSIDE OFFSHR              64                N/A     2/190/15
TORREY PINES OTR              64                N/A     2/210/15
LA JOLLA 1                 60 66  260/  7/  9 1014.1
SAN DIEGO BAY                 68              1014.5
POINT LOMA SOUTH              63                N/A     3/250/14

$$





USA.gov is the U.S. government's official web portal to all federal, state and local government web resources and services.